This is the latest recevied weather packets stored in our database for station/object 4S6DRJ-13. If no packets are shown the sender has not sent any weather packets the latest 10 day(s).
| Time | Temp. | Humidity | Pressure | Rain* | Wind** | Luminosity | Snow |
|---|---|---|---|---|---|---|---|
| 1788195741 | 28.33° C | 84% | 1009.8 hPa | 0 mm | 1.79 m/s, 164° | 0 W/m² | - |
| 1788195680 | 28.33° C | 83% | 1010.1 hPa | 0 mm | 0 m/s | 0 W/m² | - |
| 1788195619 | 28.33° C | 83% | 1009.8 hPa | 0 mm | 0.89 m/s, 235° | 0 W/m² | - |
| 1788195558 | 28.33° C | 83% | 1010.1 hPa | 0 mm | 0.89 m/s, 208° | 0 W/m² | - |
| 1788195497 | 28.33° C | 83% | 1010.2 hPa | 0 mm | 1.34 m/s, 158° | 0 W/m² | - |
| 1788195436 | 28.33° C | 83% | 1009.8 hPa | 0 mm | 0.89 m/s, 224° | 0 W/m² | - |
| 1788195375 | 28.33° C | 83% | 1010.1 hPa | 0 mm | 0.45 m/s, 115° | 0 W/m² | - |
| 1788195321 | 28.33° C | 83% | 1010.1 hPa | 0 mm | 0.89 m/s, 226° | 0 W/m² | - |
| 1788195253 | 28.33° C | 83% | 1010.1 hPa | 0 mm | 0 m/s | 0 W/m² | - |
| 1788195192 | 28.33° C | 83% | 1010.1 hPa | 0 mm | 0 m/s | 0 W/m² | - |
| 1788195131 | 28.33° C | 83% | 1010 hPa | 0 mm | 0.45 m/s, 204° | 0 W/m² | - |
| 1788195070 | 28.33° C | 83% | 1009.7 hPa | 0 mm | 0.89 m/s, 212° | 0 W/m² | - |
| 1788195009 | 28.33° C | 83% | 1009.8 hPa | 0 mm | 0.45 m/s, 213° | 0 W/m² | - |
| 1788194948 | 28.33° C | 83% | 1010 hPa | 0 mm | 0.89 m/s, 257° | 0 W/m² | - |
| 1788194887 | 28.33° C | 83% | 1010.1 hPa | 0 mm | 0 m/s | 0 W/m² | - |
| 1788194826 | 28.33° C | 83% | 1010 hPa | 0 mm | 0 m/s | 0 W/m² | - |
| 1788194765 | 28.33° C | 83% | 1010.1 hPa | 0 mm | 0 m/s | 0 W/m² | - |
| 1788194704 | 28.33° C | 83% | 1009.9 hPa | 0 mm | 0.45 m/s, 204° | 0 W/m² | - |
| 1788194643 | 28.33° C | 83% | 1010 hPa | 0 mm | 0 m/s | 0 W/m² | - |
| 1788194582 | 28.33° C | 83% | 1009.8 hPa | 0 mm | 0.45 m/s, 239° | 0 W/m² | - |
| 1788194521 | 28.33° C | 83% | 1010.1 hPa | 0 mm | 0.89 m/s, 149° | 0 W/m² | - |
| 1788194460 | 28.33° C | 83% | 1009.9 hPa | 0 mm | 0.45 m/s, 177° | 0 W/m² | - |
| 1788194399 | 28.33° C | 83% | 1009.9 hPa | 0 mm | 0 m/s | 0 W/m² | - |
| 1788194339 | 28.33° C | 83% | 1010 hPa | 0 mm | 0.45 m/s, 251° | 0 W/m² | - |
| 1788194277 | 28.33° C | 83% | 1009.8 hPa | 0 mm | 0.89 m/s, 235° | 0 W/m² | - |
* Rain latest hour (hover to see other rain measurements)
** Current wind speed in m/s (hover to see current wind gust speed)